Providence, RI

10:32 PM EDT on April 25, 2017 (GMT -0400)
Green State

Weather History for KPVD - October, 2013

Change the Weather History Date:

Saturday, October 12, 2013

  Actual Average Record
Temperature  
Mean Temperature 61 °F 55 °F  
Max Temperature 69 °F 65 °F 87 °F (1928)
Min Temperature 52 °F 45 °F 27 °F (1956)
Degree Days  
Heating Degree Days 4 11  
Month to date heating degree days 42 106  
Since 1 July heating degree days 145 203  
Cooling Degree Days 0 0  
Month to date cooling degree days 7 6  
Year to date cooling degree days 892 742  
Growing Degree Days 10 (Base 50)    
Moisture  
Dew Point 51 °F    
Average Humidity 74    
Maximum Humidity 89    
Minimum Humidity 59    
Precipitation  
Precipitation 0.00 in 0.12 in 1.17 in (1983)
Month to date precipitation 0.47 1.51  
Year to date precipitation 35.87 36.03  
Snow  
Snow 0.00 in 0.00 in 0.00 in (2009)
Month to date snowfall 0.0 0.0  
Since 1 July snowfall 0.0 0.0  
Since 1 September snowfall 0.0 0.0  
Snow Depth 0.00 in    
Sea Level Pressure  
Sea Level Pressure 30.26 in    
Wind  
Wind Speed 12 mph (NE)    
Max Wind Speed 23 mph    
Max Gust Speed 29 mph    
Visibility 10 miles    
Events      
T = Trace of Precipitation, MM = Missing Value Source: NWS Daily Summary

Daily Weather History Graph

Daily Weather History Graph

Search for Another Location

Airport or City:

Trip Planner

Search our weather history database for the weather conditions in past years. The results will help you decide how hot, cold, wet, or windy it might be!

Date:

Astronomy

Oct. 12, 2013 Rise Set
Actual Time 6:54 AM EDT 6:08 PM EDT
Civil Twilight 6:26 AM EDT 6:36 PM EDT
Nautical Twilight 5:54 AM EDT 7:08 PM EDT
Astronomical Twilight 5:22 AM EDT 7:41 PM EDT
Moon 2:20 PM EDT (10/12) No Moon Set
Length of Visible Light 12h 09m
Length of Day
11h 14m
First Quarter, 58% of the Moon is Illuminated
Oct 12
First Quarter
Oct 18
Full
Oct 26
Last Quarter
Nov 3
New
Nov 10
First Quarter

Hourly Weather History & Observations

Time (EDT) Temp. Dew Point Humidity Pressure Visibility Wind Dir Wind Speed Gust Speed Precip Events Conditions
12:51 AM 53.1 °F 46.0 °F 77% 30.14 in 10.0 mi North 6.9 mph - N/A   Clear
1:51 AM 53.1 °F 45.0 °F 74% 30.14 in 10.0 mi North 5.8 mph - N/A   Clear
2:51 AM 55.0 °F 45.0 °F 69% 30.15 in 10.0 mi NNE 5.8 mph - N/A   Clear
3:51 AM 55.0 °F 46.0 °F 72% 30.16 in 10.0 mi North 4.6 mph - N/A   Clear
4:51 AM 55.0 °F 46.9 °F 74% 30.17 in 10.0 mi NNE 6.9 mph - N/A   Clear
5:51 AM 55.0 °F 48.9 °F 80% 30.18 in 10.0 mi North 9.2 mph - N/A   Mostly Cloudy
6:51 AM 54.0 °F 50.0 °F 86% 30.19 in 10.0 mi North 6.9 mph - N/A   Mostly Cloudy
7:51 AM 55.0 °F 51.1 °F 86% 30.22 in 10.0 mi North 8.1 mph - N/A   Scattered Clouds
8:51 AM 59.0 °F 53.1 °F 81% 30.24 in 10.0 mi NNE 12.7 mph - N/A   Scattered Clouds
9:51 AM 64.0 °F 54.0 °F 70% 30.25 in 10.0 mi NE 18.4 mph - N/A   Scattered Clouds
10:51 AM 66.9 °F 53.1 °F 61% 30.25 in 10.0 mi NE 18.4 mph 21.9 mph N/A   Scattered Clouds
11:51 AM 68.0 °F 54.0 °F 61% 30.26 in 10.0 mi NE 17.3 mph 26.5 mph N/A   Scattered Clouds
12:51 PM 66.0 °F 54.0 °F 65% 30.27 in 10.0 mi NE 19.6 mph 26.5 mph N/A   Mostly Cloudy
1:27 PM 66.2 °F 53.6 °F 64% 30.27 in 10.0 mi NE 20.7 mph 25.3 mph N/A   Mostly Cloudy
1:51 PM 64.9 °F 54.0 °F 68% 30.27 in 10.0 mi NE 16.1 mph - N/A   Overcast
2:51 PM 61.0 °F 54.0 °F 78% 30.29 in 10.0 mi NE 16.1 mph - N/A   Overcast
3:51 PM 60.1 °F 54.0 °F 80% 30.30 in 10.0 mi NE 12.7 mph - N/A   Overcast
4:51 PM 60.1 °F 53.1 °F 78% 30.31 in 10.0 mi NE 12.7 mph - N/A   Overcast
5:51 PM 59.0 °F 53.1 °F 81% 30.32 in 10.0 mi NE 11.5 mph - N/A   Overcast
6:51 PM 57.9 °F 51.1 °F 78% 30.33 in 9.0 mi ENE 15.0 mph 23.0 mph N/A   Overcast
7:51 PM 57.0 °F 51.1 °F 81% 30.34 in 10.0 mi NE 11.5 mph - N/A   Overcast
8:51 PM 57.0 °F 50.0 °F 77% 30.36 in 10.0 mi NE 12.7 mph - N/A   Mostly Cloudy
9:51 PM 55.9 °F 48.9 °F 77% 30.36 in 9.0 mi ENE 10.4 mph 19.6 mph N/A   Mostly Cloudy
10:51 PM 54.0 °F 48.9 °F 83% 30.37 in 9.0 mi NE 8.1 mph - N/A   Scattered Clouds
11:51 PM 52.0 °F 48.9 °F 89% 30.37 in 10.0 mi NE 6.9 mph - N/A   Scattered Clouds